Content
SEND FEEDBACK

Daily
Averages
Monthly
Summary
United States of America

JAMESTOWN, NEW YORK


Home > North America > United States > New York
Elevation: 1725 feet     Latitude: 42 09N     Longitude: 079 15W

WEATHER
 
SELECT A DAY
Number of Records: 344,802;   Date Range: 1/1/95 - 9/22/14
 
SHARE

PRINT THIS DATA

[ ← Previous Day ]
WEATHER ALMANAC - APRIL 6, 2013
[ Next Day → ]
[ °C ]   °F
Weather ElementAverageHighLow
Temperature35.4 °F48.2 °F (5:15 pm)19.4 °F (8:15 am)
Dewpoint14 °F17.6 °F (12:35 am)8.6 °F (4:55 pm)
Humidity47.9 %86 % (6:15 am)20 % (6:35 pm)
Barometer30.15 in30.26 in (10:35 am)30.00 in (11:55 pm)
Wind Speed7.8 mph15 mph (10:15 pm)
Wind Gust19.6 mph (10:35 pm)
Weather ElementAverage
Visibility10 mi
Wind DirectionSSE (172 °)

Weather ElementTotal
Precipitation---
Heating Degree Days31.2 (Base 65)
Averaged from 71 records on April 6, 2013
WEATHER CONDITIONS BREAKOUT
WIND DIRECTION BREAKOUT
WEATHER BY HOUR - APRIL 6, 2013
[ °C ]   °F
Local TimeTemperatureDewpointHumidityBarometerVisibilityWind DirectionWind SpeedGust SpeedPrecipitationEventsConditions
12:35 AM26.6 °F17.6 °F69 %30.14 in10.0 miNNW (340°)6.9 mphClear
12:55 AM26.6 °F17.6 °F69 %30.14 in10.0 miNNW (330°)8.1 mphClear
1:15 AM26.6 °F17.6 °F69 %30.15 in10.0 miNNW (330°)5.8 mphClear
1:35 AM26.6 °F17.6 °F69 %30.15 in10.0 miNNW (340°)5.8 mphClear
1:55 AM26.6 °F15.8 °F64 %30.16 in10.0 miNNW (330°)6.9 mphClear
2:15 AM26.6 °F15.8 °F64 %30.16 in10.0 miNNW (340°)8.1 mphClear
2:35 AM24.8 °F17.6 °F74 %30.16 in10.0 miNorth (350°)5.8 mphClear
2:55 AM24.8 °F17.6 °F74 %30.16 in10.0 miNorth (360°)5.8 mphClear
3:15 AM24.8 °F17.6 °F74 %30.16 in10.0 miNorth (10°)4.6 mphClear
3:35 AM23.0 °F17.6 °F80 %30.16 in10.0 miNorth (10°)4.6 mphClear
3:55 AM23.0 °F17.6 °F80 %30.17 in10.0 miCalmClear
4:15 AM23.0 °F17.6 °F80 %30.17 in10.0 miNorth (350°)3.5 mphClear
4:35 AM23.0 °F17.6 °F80 %30.17 in10.0 miNNW (340°)3.5 mphScattered Clouds
4:55 AM23.0 °F17.6 °F80 %30.18 in10.0 miNorth (360°)3.5 mphPartly Cloudy
5:15 AM23.0 °F17.6 °F80 %30.18 in10.0 miNorth (350°)3.5 mphClear
5:35 AM23.0 °F17.6 °F80 %30.18 in10.0 miNorth (350°)3.5 mphClear
5:55 AM23.0 °F17.6 °F80 %30.19 in10.0 miCalmClear
6:15 AM21.2 °F17.6 °F86 %30.20 in10.0 miCalmClear
6:35 AM23.0 °F17.6 °F80 %30.21 in10.0 miCalmClear
6:55 AM21.2 °F17.6 °F86 %30.22 in10.0 miCalmClear
7:15 AM21.2 °F17.6 °F86 %30.22 in10.0 miCalmClear
7:35 AM21.2 °F17.6 °F86 %30.22 in10.0 miCalmClear
7:55 AM23.0 °F17.6 °F80 %30.22 in10.0 miEast (80°)5.8 mphClear
8:15 AM19.4 °F15.8 °F86 %30.23 in10.0 miEast (100°)4.6 mphClear
8:35 AM24.8 °F15.8 °F69 %30.24 in10.0 miEast (100°)5.8 mphClear
8:55 AM26.6 °F15.8 °F64 %30.24 in10.0 miEast (100°)8.1 mphClear
9:15 AM26.6 °F15.8 °F64 %30.25 in10.0 miESE (120°)8.1 mphClear
9:35 AM26.6 °F15.8 °F64 %30.25 in10.0 miEast (100°)6.9 mphClear
9:55 AM28.4 °F15.8 °F59 %30.25 in10.0 miSSE (150°)9.2 mphClear
10:15 AM30.2 °F15.8 °F55 %30.25 in10.0 miSE (140°)6.9 mphClear
10:35 AM30.2 °F15.8 °F55 %30.26 in10.0 miSE (140°)9.2 mphClear
10:55 AM33.8 °F10.4 °F38 %30.25 in10.0 miESE (120°)6.9 mphClear
11:15 AM33.8 °F12.2 °F41 %30.24 in10.0 miESE (110°)9.2 mphClear
11:35 AM35.6 °F12.2 °F38 %30.24 in10.0 miSSE (160°)10.4 mphClear
11:55 AM35.6 °F12.2 °F38 %30.24 in10.0 miSouth (190°)10.4 mphClear
12:15 PM37.4 °F14.0 °F38 %30.23 in10.0 miSSE (160°)8.1 mphClear
12:35 PM37.4 °F14.0 °F38 %30.23 in10.0 miSouth (170°)9.2 mph16.1 mphClear
12:55 PM39.2 °F14.0 °F36 %30.22 in10.0 miSSE (150°)11.5 mph16.1 mphClear
1:15 PM39.2 °F12.2 °F33 %30.22 in10.0 miSSE (160°)10.4 mphClear
1:35 PM41.0 °F12.2 °F31 %30.20 in10.0 miSE (130°)10.4 mphClear
1:55 PM37.4 °F12.2 °F36 %30.19 in10.0 miSE (140°)10.4 mphClear
2:15 PM42.8 °F12.2 °F29 %30.19 in10.0 miSouth (190°)8.1 mphClear
2:35 PM41.0 °F14.0 °F33 %30.17 in10.0 miSouth (180°)9.2 mphClear
2:55 PM42.8 °F12.2 °F29 %30.16 in10.0 miSSE (160°)8.1 mphClear
3:15 PM44.6 °F10.4 °F25 %30.15 in10.0 miSSE (150°)12.7 mphClear
3:35 PM46.4 °F10.4 °F23 %30.14 in10.0 miSouth (190°)9.2 mphClear
3:55 PM46.4 °F10.4 °F23 %30.14 in10.0 miSSE (160°)10.4 mphPartly Cloudy
4:15 PM46.4 °F10.4 °F23 %30.12 in10.0 miSouth (180°)8.1 mphMostly Cloudy
4:35 PM46.4 °F10.4 °F23 %30.11 in10.0 miSSE (160°)11.5 mphScattered Clouds
4:55 PM46.4 °F8.6 °F22 %30.11 in10.0 miSouth (170°)9.2 mphMostly Cloudy
5:15 PM48.2 °F10.4 °F22 %30.11 in10.0 miSSE (160°)10.4 mphMostly Cloudy
5:35 PM48.2 °F10.4 °F22 %30.11 in10.0 miSouth (180°)9.2 mphOvercast
5:55 PM48.2 °F10.4 °F22 %30.10 in10.0 miSSE (160°)11.5 mph16.1 mphOvercast
6:15 PM48.2 °F10.4 °F22 %30.09 in10.0 miSSE (160°)11.5 mph17.3 mphOvercast
6:35 PM48.2 °F8.6 °F20 %30.09 in10.0 miSouth (170°)10.4 mphMostly Cloudy
6:55 PM48.2 °F8.6 °F20 %30.08 in10.0 miSouth (180°)9.2 mphPartly Cloudy
7:15 PM44.6 °F10.4 °F25 %30.08 in10.0 miSouth (190°)9.2 mphMostly Cloudy
7:35 PM44.6 °F10.4 °F25 %30.08 in10.0 miSouth (190°)9.2 mphOvercast
7:55 PM48.2 °F12.2 °F24 %30.08 in10.0 miSouth (190°)10.4 mphOvercast
8:15 PM46.4 °F12.2 °F25 %30.07 in10.0 miSouth (180°)11.5 mphOvercast
8:35 PM48.2 °F12.2 °F24 %30.06 in10.0 miSouth (170°)10.4 mphOvercast
8:55 PM46.4 °F12.2 °F25 %30.05 in10.0 miSouth (170°)9.2 mphMostly Cloudy
9:15 PM46.4 °F12.2 °F25 %30.05 in10.0 miSouth (170°)8.1 mphPartly Cloudy
9:35 PM46.4 °F12.2 °F25 %30.05 in10.0 miSouth (170°)11.5 mph16.1 mphClear
9:55 PM46.4 °F12.2 °F25 %30.04 in10.0 miSouth (180°)9.2 mphClear
10:15 PM46.4 °F12.2 °F25 %30.04 in10.0 miSouth (170°)15.0 mph18.4 mphClear
10:35 PM46.4 °F12.2 °F25 %30.03 in10.0 miSouth (180°)13.8 mph19.6 mphClear
10:55 PM44.6 °F12.2 °F27 %30.02 in10.0 miSouth (170°)12.7 mphClear
11:15 PM44.6 °F14.0 °F29 %30.01 in10.0 miSouth (180°)13.8 mph19.6 mphPartly Cloudy
11:35 PM44.6 °F14.0 °F29 %30.01 in10.0 miSouth (170°)11.5 mph17.3 mphMostly Cloudy
11:55 PM44.6 °F14.0 °F29 %30.00 in10.0 miSouth (170°)11.5 mph17.3 mphMostly Cloudy
Hourly data recorded from KJHW, located miles away from Jamestown, New York







STORIES FROM OUR PARTNERS